Regional Weather Roundup
Issued by NWS

Home | Current Version | Previous Version | Text Only | Print | Product List | Glossary On
Versions: 1 2 3 4 5 6 7 8 9 10 11 12 13 14 15 16 17 18 19 20 21 22 23 24 25 26 27
000
ASUS44 KBMX 290010
RWRAL

ALABAMA REGIONAL WEATHER ROUNDUP
NATIONAL WEATHER SERVICE BIRMINGHAM AL
700 PM CDT SUN MAY 28 2017

NOTE: "FAIR" INDICATES FEW OR NO CLOUDS BELOW 12,000 FEET
WITH NO SIGNIFICANT WEATHER AND/OR OBSTRUCTIONS TO VISIBILITY.

THE REMARK "TC" DENOTES TEMPERATURE IN DEGREES CELSIUS.

ALZ001>011-014-016>018-020-290100-
NORTH ALABAMA

CITY           SKY/WX    TMP DP  RH WIND       PRES   REMARKS
MUSCLE SHOALS  CLOUDY    80  62  54 W9        29.93F
6HR MIN TEMP:  80; 6HR MAX TEMP:  87;

HUNTSVILLE     MOCLDY    81  66  60 W6        29.92F
6HR MIN TEMP:  79; 6HR MAX TEMP:  84;

DECATUR        CLOUDY    79  66  64 W9        29.92F
6HR MIN TEMP:  79; 6HR MAX TEMP:  83;

HALEYVILLE     CLOUDY    76  67  73 CALM      29.96F
6HR MIN TEMP:  76; 6HR MAX TEMP:  82;

GADSDEN        PTCLDY    79  68  69 W3        29.93S
6HR MIN TEMP:  79; 6HR MAX TEMP:  85;

$$

ALZ012-013-022-023-030>036-040>044-290100-
WEST CENTRAL ALABAMA

CITY           SKY/WX    TMP DP  RH WIND       PRES   REMARKS
TUSCALOOSA     CLEAR     82  65  56 NW6       29.92F
6HR MIN TEMP:  78; 6HR MAX TEMP:  84;

$$

ALZ015-024>027-033>036-040>044-290100-
CENTRAL ALABAMA

CITY           SKY/WX    TMP DP  RH WIND       PRES   REMARKS
BIRMINGHAM     CLOUDY    80  66  62 W8        29.95F
6HR MIN TEMP:  79; 6HR MAX TEMP:  83;

MONTGOMERY     CLOUDY    83  66  56 SW5       29.93R
6HR MIN TEMP:  83; 6HR MAX TEMP:  88;

SHELBY CO ARPT PTCLDY    79  69  71 VRB5      29.93F
6HR MIN TEMP:  79; 6HR MAX TEMP:  82;

MAXWELL AFB    CLOUDY    82  68  63 CALM      29.92F
6HR MIN TEMP:  82; 6HR MAX TEMP:  86;

GREENVILLE     FAIR      80  67  64 SW5       29.92R
6HR MIN TEMP:  80; 6HR MAX TEMP:  86;

$$

ALZ019-021-028-029-037-038-045>048-290100-
EAST CENTRAL ALABAMA

CITY           SKY/WX    TMP DP  RH WIND       PRES   REMARKS
ANNISTON       PTCLDY    78  67  68 W6        29.94R
6HR MIN TEMP:  78; 6HR MAX TEMP:  84;

ALEXANDER CITY MOCLDY    78  67  68 W3        29.95S
6HR MIN TEMP:  78; 6HR MAX TEMP:  84;

AUBURN         MOCLDY    80  67  64 W8        29.96R
6HR MIN TEMP:  80; 6HR MAX TEMP:  86;

$$

ALZ051>064-290100-
SOUTHWEST ALABAMA

CITY           SKY/WX    TMP DP  RH WIND       PRES   REMARKS
MOBILE         PTCLDY    82  73  74 S17       29.94F
6HR MIN TEMP:  77; 6HR MAX TEMP:  87; 6HR PCP: TRACE;

BROOKLEY FIELD CLEAR     83  75  77 S10G23    29.93F HX  90
6HR MIN TEMP:  81; 6HR MAX TEMP:  86; 6HR PCP: TRACE;

EVERGREEN      CLOUDY    80  70  71 S6        29.92F
6HR MIN TEMP:  80; 6HR MAX TEMP:  87;

$$

ALZ049-050-065>069-290100-
SOUTHEAST ALABAMA

CITY           SKY/WX    TMP DP  RH WIND       PRES   REMARKS
DOTHAN         PTCLDY    80  73  79 SW14      29.96F
6HR MIN TEMP:  80; 6HR MAX TEMP:  92;

OZARK          CLOUDY    78  71  78 SW10      29.93S
6HR MIN TEMP:  78; 6HR MAX TEMP:  91;

TROY           CLOUDY    81  70  69 SW6       29.93R
6HR MIN TEMP:  81; 6HR MAX TEMP:  89;

EUFAULA        FAIR      83  69  62 VRB3      29.90R
6HR MIN TEMP:  83; 6HR MAX TEMP:  92;

$$




USA.gov is the U.S. government's official web portal to all federal, state and local government web resources and services.